Theta_e
325 325 325 325 325 325 326 326 326 326 327 327 327 327 327 327 326 325 318 326 332 354 349 339 342 338 339 334 338 339 324 317 319 321 325 331 331 335 337 334 334 336 337 339 348
325 325 324 324 324 325 325 325 325 325 325 325 326 327 327 327 324 316 339 357 349 358 326 327 327 331 332 329 333 329 324 320 326 328 327 331 332 333 332 332 333 337 343 345 346
324 324 324 323 324 324 325 325 324 325 324 324 325 327 327 329 317 315 344 356 356 350 326 326 329 331 328 330 326 326 321 325 326 330 331 330 331 334 332 328 333 335 341 341 341
323 323 323 323 323 323 323 324 324 323 323 322 324 326 327 326 306 320 342 344 358 334 324 326 330 328 325 323 326 322 325 329 331 332 330 329 331 330 332 332 336 342 343 342 339
322 322 322 322 322 323 323 323 323 322 323 323 323 326 325 313 311 319 339 335 334 328 324 328 329 328 323 324 325 322 326 330 332 331 331 331 329 331 332 336 341 343 342 340 338
322 322 322 322 322 322 322 322 321 321 322 324 324 326 320 308 317 319 321 322 327 327 328 329 330 329 326 324 322 324 327 328 330 330 330 328 330 332 335 339 340 341 340 339 336
322 321 321 321 321 321 321 320 320 321 322 324 326 326 315 313 319 320 321 321 323 327 327 331 330 328 327 324 326 324 322 327 328 328 328 330 327 327 337 339 338 338 339 339 337
321 320 320 320 320 320 319 319 319 322 325 327 327 324 312 318 321 321 321 321 323 327 326 328 327 326 326 327 325 321 322 316 324 327 329 328 320 332 337 337 335 337 337 338 340
320 319 319 319 319 318 317 318 322 326 326 327 325 317 312 322 318 322 323 319 322 322 323 323 325 325 325 322 319 319 314 314 318 326 326 326 321 330 335 336 334 336 337 337 339
319 318 318 318 317 316 315 318 323 326 327 327 323 315 318 314 319 321 323 321 319 319 319 320 323 321 322 319 311 314 313 315 315 320 325 323 323 330 334 333 334 335 337 337 338
318 317 317 317 315 314 317 324 322 319 321 317 317 314 314 321 322 319 320 318 318 317 315 319 316 315 318 320 320 318 316 314 317 320 320 320 321 324 333 333 332 333 335 336 338
317 316 316 315 314 314 320 321 319 319 314 320 319 319 321 322 314 317 319 315 314 311 313 313 312 318 320 320 318 318 316 315 318 319 317 321 320 324 328 332 334 333 334 334 337
316 316 315 314 313 319 322 320 323 323 316 315 317 316 317 319 313 313 316 315 312 310 310 310 313 317 316 317 316 316 316 316 313 317 319 318 318 321 327 331 334 335 336 336 337
315 315 314 312 315 320 321 324 324 324 311 309 312 315 317 318 312 318 317 314 309 307 309 309 313 311 313 313 316 312 320 316 314 313 310 317 309 319 323 327 331 333 335 335 337
315 315 313 311 318 318 321 323 325 321 299 310 311 320 318 314 313 313 316 313 307 306 307 306 307 309 309 312 316 314 318 315 314 313 313 314 311 316 322 319 323 333 334 335 338
314 314 313 317 320 320 323 324 322 307 298 306 312 310 311 311 310 313 312 314 312 307 308 307 311 311 311 314 315 317 314 314 315 314 307 312 312 313 318 319 322 328 333 336 336
312 311 312 318 319 322 323 321 306 301 310 306 308 310 309 308 308 310 309 307 305 302 303 306 306 310 312 310 314 313 310 303 302 304 304 314 312 314 321 323 323 324 329 336 338
310 309 314 318 324 322 322 313 299 304 308 310 309 310 307 308 308 308 308 305 308 306 306 302 300 306 310 309 309 309 309 303 298 301 306 314 308 314 321 324 326 327 330 336 338
309 323 325 328 325 323 317 304 304 308 308 307 310 308 306 308 307 307 307 307 308 308 304 303 302 308 309 311 311 309 307 312 306 310 306 310 313 319 321 321 324 326 326 333 337
319 325 321 325 325 320 311 300 307 311 309 309 307 309 305 306 306 307 307 309 308 310 312 308 302 307 309 310 312 310 314 306 307 301 300 306 308 310 316 318 321 323 325 329 336
321 319 322 327 324 315 307 306 306 310 311 309 308 308 309 307 308 307 308 311 312 312 312 310 306 306 309 307 306 308 309 310 312 309 303 302 307 317 317 320 321 323 327 330 332
321 314 326 328 313 316 309 308 304 311 314 312 313 312 310 309 309 308 309 313 317 315 307 311 308 304 305 310 312 312 310 310 306 306 308 307 307 319 319 320 322 325 329 334 335
320 320 327 324 309 309 313 311 313 312 313 312 311 313 314 311 308 309 311 318 316 311 310 311 306 302 303 307 309 307 310 311 312 311 307 304 307 319 320 320 323 328 329 333 338
319 312 318 321 321 314 311 311 310 317 315 316 315 317 314 312 313 309 311 317 319 319 318 314 309 306 302 305 309 306 308 310 310 306 307 308 310 315 318 319 322 327 330 333 342
322 317 317 310 315 315 315 314 311 311 316 319 316 316 315 311 310 309 311 314 317 317 314 312 309 310 310 310 308 307 308 309 309 310 307 310 311 315 319 322 325 328 331 334 340
316 318 321 320 316 315 308 313 311 313 316 314 315 316 317 314 316 311 313 314 313 319 317 316 311 313 310 311 308 305 307 309 310 310 311 312 311 317 322 325 327 330 331 335 341
321 323 319 309 315 313 313 313 313 316 318 319 317 318 316 319 321 323 324 322 320 319 314 315 311 310 306 311 310 304 308 308 310 313 311 307 313 317 317 320 328 331 333 336 342
Wind_Speed
14 15 15 15 16 17 17 18 19 19 19 19 18 16 14 15 20 7 8 5 5 11 7 6 7 6 7 4 5 3 6 6 8 7 6 5 5 3 2 10 3 3 4 19 20
15 15 15 16 16 17 17 17 18 19 19 19 18 16 14 14 9 10 7 8 5 7 8 8 3 3 6 1 2 6 4 9 6 3 3 6 3 7 5 9 6 8 12 21 21
15 15 15 16 17 17 17 17 18 19 19 18 18 17 15 16 8 4 9 7 7 10 9 10 8 6 6 1 3 3 7 10 6 2 4 7 5 2 4 6 6 11 19 21 21
16 16 16 17 18 19 19 18 18 18 18 18 18 17 15 7 5 6 7 5 5 13 10 7 7 6 7 5 3 6 7 7 3 4 5 7 8 5 1 5 3 13 20 20 20
15 16 17 18 19 19 19 19 18 18 18 17 15 14 9 7 4 4 7 4 8 12 14 10 8 4 7 6 7 5 9 5 4 5 6 7 6 5 7 8 13 16 18 18 17
16 16 17 18 19 20 20 19 19 19 17 15 12 11 7 9 4 1 6 5 7 12 12 10 5 3 4 4 6 8 5 3 2 6 7 5 6 6 7 12 14 17 17 16 16
16 16 17 19 21 21 21 20 21 20 16 10 7 6 8 8 1 4 6 4 4 10 10 6 3 8 0 4 6 4 4 5 2 3 4 4 8 6 12 13 16 15 16 15 16
16 17 18 19 21 22 23 22 22 16 10 5 7 6 6 3 4 9 7 9 8 6 7 2 4 5 6 1 5 7 6 7 6 3 4 7 6 11 14 15 16 16 16 15 17
16 18 19 20 21 21 22 23 15 4 4 8 8 6 2 5 7 3 7 8 9 6 5 3 6 7 7 12 9 6 4 3 5 2 2 6 6 8 14 15 15 16 17 15 16
17 18 19 21 22 23 25 18 3 5 6 5 3 7 6 4 0 2 5 7 10 10 10 10 9 11 12 11 11 4 7 3 4 4 6 9 9 12 12 15 16 16 17 17 17
18 18 19 20 24 23 16 6 7 8 8 7 4 5 3 5 3 6 7 11 10 13 15 12 13 17 17 17 9 5 8 6 5 5 7 5 8 6 13 14 15 16 17 18 19
18 18 19 23 24 23 9 3 6 6 8 6 9 11 10 6 5 8 8 13 11 14 6 8 18 18 15 9 10 14 12 11 3 3 6 7 11 5 7 13 16 18 17 18 17
18 18 19 24 25 11 5 6 5 5 8 5 3 3 2 9 5 11 13 10 11 12 13 17 7 10 9 15 17 16 15 11 5 9 11 7 16 7 5 7 11 15 17 18 18
17 17 19 25 9 6 3 2 9 5 8 7 6 5 7 5 7 2 7 9 7 12 11 11 9 8 16 19 16 20 14 9 8 7 9 0 12 7 6 7 12 15 18 18 19
18 16 14 10 10 5 6 7 5 6 6 4 7 5 5 7 11 7 5 7 8 9 9 10 12 15 15 18 14 16 6 9 9 11 13 15 9 9 5 7 6 12 16 19 18
17 16 13 5 5 7 7 9 5 9 4 6 5 7 11 7 6 9 10 5 3 5 8 8 2 9 17 9 12 15 9 12 11 13 14 17 8 11 5 2 7 4 9 17 19
18 15 7 5 2 6 8 6 8 6 4 6 5 7 11 10 8 12 14 14 10 10 11 11 14 8 6 15 10 10 16 12 13 14 12 5 8 11 10 10 5 6 2 12 18
18 16 8 6 4 7 6 7 5 3 3 3 2 6 9 12 7 6 13 12 7 7 2 7 12 15 14 16 14 14 17 13 15 13 14 6 9 12 3 8 5 6 3 7 15
21 4 3 2 4 5 8 7 3 1 2 1 6 10 10 9 4 11 10 10 10 14 6 5 5 3 6 13 14 13 14 16 19 7 10 5 5 8 14 8 9 7 4 8 11
5 3 5 3 5 7 8 2 1 2 5 3 3 6 9 9 10 10 8 3 6 10 13 3 6 2 11 9 13 17 10 13 11 15 15 13 9 9 7 11 10 9 4 7 10
5 4 5 2 5 7 7 2 1 1 3 3 1 5 3 10 6 7 8 8 3 4 13 9 8 8 8 14 15 12 13 11 11 13 14 12 9 4 5 10 10 11 3 4 8
4 3 4 4 7 2 5 2 1 2 3 3 4 3 2 4 8 5 9 4 2 6 7 13 7 8 9 8 5 10 20 18 10 15 12 13 12 11 7 13 9 10 2 2 3
3 2 4 5 5 6 4 4 3 5 3 2 3 2 0 3 5 4 5 5 2 5 6 9 9 7 10 11 9 10 13 14 15 13 11 10 10 8 7 13 11 7 3 5 5
5 4 5 4 3 4 4 4 5 4 5 3 3 4 4 6 4 6 8 6 2 2 5 7 9 10 9 8 6 19 15 13 17 13 13 14 12 11 13 10 9 5 5 7 7
2 3 6 6 7 5 4 1 5 6 4 4 5 3 5 5 7 7 5 7 7 6 3 8 10 4 8 7 8 12 14 18 16 15 16 12 4 9 12 10 9 6 7 6 7
5 4 3 1 3 8 6 7 5 4 5 7 2 2 2 2 6 1 4 4 1 7 6 6 8 5 12 5 7 12 15 15 15 13 9 12 11 12 9 11 7 6 1 9 10
2 1 6 6 6 8 8 6 6 2 5 1 4 5 6 7 9 10 10 10 6 7 5 8 10 9 14 3 8 11 15 16 16 12 12 12 9 11 13 13 9 6 2 9 14
Wind_Direction
353 350 347 345 341 337 333 330 328 329 328 327 330 330 328 321 302 225 250 11 324 170 223 160 207 218 209 247 250 274 267 17 28 14 65 142 139 98 85 135 105 73 128 128 145
350 347 344 341 338 334 330 327 327 326 326 326 325 325 324 323 281 255 45 6 290 195 235 257 285 203 227 220 216 279 335 4 352 44 66 150 163 133 154 140 137 108 107 130 150
346 344 341 338 335 331 329 325 324 322 324 325 323 321 318 310 266 153 27 343 251 208 257 279 288 268 267 234 30 18 357 347 22 62 136 130 133 128 130 191 159 149 143 151 157
342 339 336 333 331 329 324 321 318 318 319 322 322 316 313 262 221 104 10 336 205 211 229 240 258 251 288 1 38 301 12 2 38 141 130 144 122 143 123 15 109 144 156 157 166
337 333 329 328 325 322 319 318 315 314 313 313 314 313 290 230 247 114 310 136 168 193 205 218 228 260 282 336 325 327 357 40 100 128 121 136 137 100 105 88 117 140 157 166 170
332 329 328 324 321 318 319 316 313 311 308 304 301 301 258 248 63 37 323 291 210 200 207 217 230 283 276 315 327 341 346 76 103 118 132 147 156 189 128 125 134 152 164 170 173
329 327 325 322 320 318 318 316 312 307 300 291 270 261 255 266 43 288 289 261 244 229 202 209 219 234 40 253 346 320 243 154 116 163 126 174 176 194 144 151 149 162 171 172 175
326 325 323 321 320 319 317 317 311 305 292 230 210 237 268 132 309 262 229 238 228 228 271 190 238 264 259 297 235 278 244 240 83 210 127 239 96 137 163 168 164 166 175 182 181
326 324 322 321 320 319 318 315 309 305 134 156 211 254 245 147 206 117 228 206 178 189 187 194 222 251 187 242 231 215 281 350 123 186 298 249 354 133 176 184 174 176 178 186 190
326 323 321 322 322 323 320 304 181 189 196 219 265 241 211 140 8 304 186 224 178 168 171 207 215 223 223 233 245 170 244 167 26 57 240 280 276 157 189 197 188 184 185 191 197
326 323 321 323 322 320 319 211 209 182 203 290 43 329 119 350 190 187 183 188 187 199 209 205 224 221 229 227 289 259 270 277 101 41 301 287 305 295 177 202 201 200 191 195 201
327 324 323 326 320 315 277 327 48 358 296 221 258 265 269 292 241 180 188 197 203 210 208 195 230 237 237 254 226 238 250 245 270 219 299 294 295 358 196 204 211 206 201 202 200
326 324 328 325 318 288 336 80 5 305 256 150 200 242 174 197 214 159 204 197 212 214 215 238 227 230 226 221 237 239 248 254 301 315 267 275 263 183 156 220 219 218 216 204 204
324 326 333 324 294 351 203 102 317 240 255 123 156 117 164 218 192 108 217 203 202 227 214 237 224 225 225 236 225 242 216 259 252 265 277 204 295 221 151 211 209 216 218 214 203
320 324 333 324 322 256 44 319 319 225 207 109 105 103 149 231 121 155 161 202 187 180 216 210 219 218 229 227 221 248 226 254 261 265 262 261 250 278 184 273 205 211 213 217 204
315 317 326 200 233 280 311 310 226 229 115 119 124 158 177 183 145 139 177 221 50 170 223 262 214 248 240 226 244 247 216 235 248 258 260 255 245 274 245 330 323 143 210 208 207
311 306 279 300 12 330 300 231 229 273 161 129 113 167 194 161 146 173 182 186 193 197 198 195 215 204 237 228 203 219 226 236 230 231 245 246 244 257 315 295 317 342 209 206 197
314 307 158 244 266 308 248 229 248 78 64 121 190 183 195 180 183 150 178 197 212 258 186 218 185 202 203 236 205 217 235 233 232 239 245 139 251 258 336 317 278 290 233 192 200
309 170 209 164 241 229 241 220 30 96 26 350 162 186 151 181 247 203 208 206 200 214 254 191 212 146 231 211 238 193 235 249 268 242 282 272 209 253 256 294 269 274 237 194 193
303 238 46 358 191 224 240 320 163 344 335 256 220 261 175 152 184 213 174 144 214 219 244 122 257 171 160 214 228 260 269 208 229 255 240 250 237 278 283 306 308 343 316 203 175
238 212 95 116 252 224 230 119 175 188 293 297 131 176 139 163 173 180 162 130 201 171 229 235 252 132 186 198 199 197 233 239 276 225 258 251 247 262 320 298 328 322 350 339 183
287 196 112 266 216 254 210 179 42 233 196 254 267 290 263 189 181 170 160 55 59 180 196 214 266 236 225 137 275 276 212 232 223 227 239 279 291 304 286 289 291 304 42 28 278
339 62 158 269 226 196 149 201 264 218 209 224 249 284 56 206 197 198 142 102 113 197 189 172 235 224 210 188 200 237 236 256 254 255 279 273 275 290 284 286 275 277 291 188 180
271 178 159 233 301 271 191 177 198 188 253 253 283 257 241 211 208 168 170 149 160 288 3 238 268 272 304 353 330 203 225 227 252 239 243 248 269 299 300 278 290 258 237 245 163
275 67 356 184 192 214 242 218 206 183 221 228 184 281 265 234 191 199 211 179 180 141 189 253 267 263 281 296 271 268 252 220 246 253 275 293 297 302 306 307 338 349 312 203 157
314 307 190 259 199 225 160 197 216 159 240 161 227 308 209 218 349 54 317 237 286 172 219 227 281 274 280 231 264 249 240 236 224 240 248 273 291 281 314 303 323 351 79 170 156
126 235 279 128 195 220 203 209 196 263 164 337 336 283 199 38 329 301 278 289 300 292 265 271 281 268 275 274 289 249 236 233 238 218 239 253 274 317 304 309 345 342 236 172 153